CAPE
0 0 0 0 0 0 0 0 0 0 0 0 0 0 0 0 1 2 3 3 5 1 0 0 0 1 1 0 0 0 0 0 0 0 0 0 0 0 0 0 0 0 0
0 0 0 0 0 0 0 0 0 0 0 0 0 0 2 1 7 5 0 1 1 0 2 0 0 0 1 2 1 0 0 0 0 0 0 0 0 0 0 0 0 0 0
0 0 0 0 0 0 0 0 0 0 1 0 2 3 10 4 0 0 1 1 0 1 1 0 1 1 1 3 0 0 0 0 0 0 0 0 0 0 0 0 0 0 0
0 0 0 0 0 0 0 0 0 0 0 0 0 0 0 0 0 0 0 0 0 0 1 1 1 1 1 0 0 0 0 0 0 0 0 0 0 0 0 0 0 0 0
0 0 0 0 0 0 0 0 0 0 0 0 0 0 0 0 0 0 0 1 1 0 0 0 0 0 0 0 0 0 0 0 0 0 0 0 0 0 0 0 0 0 0
0 0 0 0 0 0 0 0 0 0 0 0 0 0 1 1 0 0 1 1 0 0 0 0 0 0 0 0 0 0 0 0 0 0 0 0 0 0 0 0 0 0 0
0 0 0 0 0 0 0 0 0 0 0 0 0 0 0 0 0 0 0 0 0 0 0 0 0 0 0 0 0 0 0 0 0 0 0 0 0 0 0 0 0 0 0
0 0 0 0 0 0 0 0 0 0 0 0 0 0 0 0 0 0 0 0 0 0 0 0 0 0 0 0 0 0 0 0 0 0 0 0 0 0 0 0 0 0 0
0 0 0 0 0 0 0 0 0 0 0 0 0 0 0 0 0 0 0 0 0 0 0 0 0 0 0 0 0 0 0 0 0 0 0 0 0 0 0 0 0 0 0
0 0 0 0 0 0 0 0 0 0 0 0 0 0 0 0 0 0 0 0 0 0 0 0 0 0 0 0 0 0 1 0 0 0 0 0 0 0 1 0 0 0 0
0 0 0 0 0 0 0 0 0 0 0 0 0 0 0 0 0 0 0 0 0 0 0 0 0 0 0 0 0 0 0 0 0 0 0 0 0 0 0 0 0 0 0
0 0 0 0 0 0 0 0 0 0 0 0 0 0 0 0 0 0 1 1 0 0 0 0 0 0 0 0 0 0 1 0 0 0 0 0 0 0 0 1 1 0 0
0 0 0 0 0 0 0 0 0 0 0 0 0 0 0 0 0 0 0 2 1 0 0 0 0 0 0 0 2 1 1 0 0 0 0 0 0 0 0 0 0 0 0
0 0 0 0 0 0 0 0 0 0 0 0 0 0 0 0 0 0 0 0 0 1 0 0 0 0 0 0 0 0 1 1 1 0 0 0 0 0 0 0 1 0 0
0 0 0 0 0 0 0 0 0 0 0 0 0 0 0 0 0 0 0 0 0 1 0 0 1 1 0 0 0 0 0 0 1 0 0 0 0 0 0 0 0 0 0
0 0 0 0 0 0 0 0 0 0 0 0 0 0 0 0 0 0 0 0 0 0 0 0 0 0 0 0 1 0 0 1 0 0 0 0 0 0 0 0 0 0 0
0 0 0 0 0 0 0 0 0 0 0 0 0 0 1 1 0 0 0 0 0 0 0 0 0 0 0 0 0 0 0 0 0 0 0 0 0 0 0 0 0 0 0
0 0 0 0 0 0 0 0 0 0 0 0 0 0 0 1 0 0 0 0 0 0 0 0 0 0 0 0 0 0 0 0 0 0 0 0 0 0 0 0 0 0 0
0 0 0 0 0 0 0 0 0 0 0 0 0 0 0 0 0 0 0 0 0 0 0 0 0 0 0 0 0 0 0 0 0 0 0 0 0 0 0 0 0 0 0
0 0 0 0 0 0 0 0 0 0 0 0 0 0 0 0 0 0 0 0 0 0 0 0 0 0 0 0 0 0 0 0 0 0 0 0 0 0 0 0 0 0 0
0 0 0 0 0 0 0 0 0 0 0 0 0 0 0 0 0 0 0 0 0 0 0 0 0 0 0 0 0 0 0 0 0 0 0 0 0 0 0 0 0 0 0
0 0 0 0 0 0 0 0 0 0 0 0 0 0 0 0 0 0 0 0 0 0 0 0 0 0 0 0 0 0 0 0 0 0 0 0 0 0 0 0 0 0 0
0 0 0 0 0 0 0 0 0 0 0 0 0 0 0 0 0 0 0 0 0 0 0 0 0 0 0 0 0 0 0 0 0 0 0 0 0 0 0 0 0 0 0
0 0 0 0 0 0 0 0 0 0 0 0 0 0 0 0 0 0 0 0 0 0 0 0 0 0 0 0 0 0 0 0 0 0 0 0 0 0 0 0 0 0 0
0 0 0 0 0 0 0 0 0 0 0 0 0 0 0 0 0 0 0 0 0 0 0 0 0 0 0 0 0 0 0 0 0 0 0 0 0 0 0 0 0 0 0
0 0 0 0 0 0 0 0 0 0 0 0 0 0 0 0 0 0 0 0 0 0 0 0 0 0 0 0 0 0 0 0 0 0 0 0 0 0 0 0 0 0 0
CIN
0 0 0 0 0 0 0 0 0 0 0 0 0 0 0 0 -19 -78 -29 -44 -124 -101 0 0 0 0 0 0 0 0 0 0 0 0 0 0 0 0 0 0 0 0 0
0 0 0 0 0 0 0 0 0 0 0 0 0 0 -58 -57 -70 -82 -1 -1 0 0 0 0 0 0 0 0 0 0 0 0 0 0 0 0 0 0 0 0 0 0 0
0 0 0 0 0 0 0 0 0 -3 -27 -5 -27 -28 -41 -52 0 0 0 0 0 0 0 0 0 0 0 0 0 0 0 0 0 0 0 0 0 0 0 0 0 0 0
0 0 0 0 0 0 0 0 0 0 0 0 0 0 0 0 0 0 0 0 0 0 0 0 0 0 0 0 0 0 0 0 0 0 0 0 0 0 0 0 0 0 0
0 0 0 0 0 0 0 0 0 0 0 0 0 0 0 0 0 0 0 0 0 0 0 0 0 0 0 0 0 0 0 0 0 0 0 0 0 0 0 0 0 0 0
0 0 0 0 0 0 0 0 0 0 0 0 0 0 0 0 0 0 0 0 0 0 0 0 0 0 0 0 0 0 0 0 0 0 0 0 0 0 0 0 0 0 0
0 0 0 0 0 0 0 0 0 0 0 0 0 0 0 0 0 0 0 0 0 0 0 0 0 0 0 0 0 0 0 0 0 0 0 0 0 0 0 0 0 0 0
0 0 0 0 0 0 0 0 0 0 0 0 0 0 0 0 0 0 0 0 0 0 0 0 0 0 0 0 0 0 0 0 0 0 0 0 0 0 0 0 0 0 0
0 0 0 0 0 0 0 0 0 0 0 0 0 0 0 0 0 0 0 0 0 0 0 0 0 0 0 0 0 0 0 0 0 0 0 0 0 0 0 0 0 0 0
0 0 0 0 0 0 0 0 0 0 0 0 0 0 0 0 0 0 0 0 0 0 0 0 0 0 0 0 0 0 0 0 0 0 0 0 0 0 0 0 0 0 0
0 0 0 0 0 0 0 0 0 0 0 0 0 0 0 0 0 0 0 0 0 0 0 0 0 0 0 0 0 0 0 0 0 0 0 0 0 0 0 0 0 0 0
0 0 0 0 0 0 0 0 0 0 0 0 0 0 0 0 0 0 0 0 0 0 0 0 0 0 0 0 0 0 0 0 0 0 0 0 0 0 0 0 0 0 0
0 0 0 0 0 0 0 0 0 0 0 0 0 0 0 0 0 0 0 0 0 0 0 0 0 0 0 0 0 0 0 0 0 0 0 0 0 0 0 0 0 0 0
0 0 0 0 0 0 0 0 0 0 0 0 0 0 0 0 0 0 0 0 0 0 0 0 0 0 0 0 0 0 -1 -1 0 0 0 -1 0 0 0 0 0 0 0
0 0 0 0 0 0 0 0 0 0 0 0 0 0 0 0 0 0 0 0 0 0 0 0 0 0 0 0 0 0 0 0 -1 0 0 0 0 0 0 0 0 0 0
0 0 0 0 0 0 0 0 0 0 0 0 0 0 0 0 0 0 0 0 0 0 -1 0 0 0 0 0 0 0 0 -2 0 0 0 0 0 0 0 0 0 0 0
0 0 0 0 0 0 0 0 0 0 0 0 0 0 0 0 0 0 0 0 0 0 0 0 0 0 0 0 0 0 0 0 0 0 0 0 0 0 0 0 0 0 0
0 0 0 0 0 0 0 0 0 0 0 0 0 0 0 0 0 0 0 0 0 0 0 0 0 0 0 0 0 0 0 0 0 0 0 0 0 0 0 0 0 0 0
0 0 0 0 0 0 0 0 0 0 0 0 0 0 0 0 0 0 0 0 0 0 0 0 0 0 0 0 0 0 0 0 0 0 0 0 0 0 0 0 0 0 0
0 0 0 0 0 0 0 0 0 0 0 0 0 0 0 0 0 0 0 0 0 0 0 0 0 0 0 0 0 0 0 0 0 0 0 0 0 0 0 0 0 0 0
0 0 0 0 0 0 0 0 0 0 0 0 0 0 0 0 0 0 0 0 0 0 0 0 0 0 0 0 0 0 0 0 0 0 0 0 0 0 0 0 0 0 0
0 0 0 0 0 0 0 0 0 0 0 0 0 0 0 0 0 0 0 0 0 0 0 0 0 0 0 0 0 0 0 0 0 0 0 0 0 0 0 0 0 0 0
0 0 0 0 0 0 0 0 0 0 0 0 0 0 0 0 0 0 0 0 0 0 0 0 0 0 0 0 0 0 0 0 0 0 0 0 0 0 0 0 0 0 0
0 0 0 0 0 0 0 0 0 0 0 0 0 0 0 0 0 0 0 0 0 0 0 0 0 0 0 0 0 0 0 0 0 0 0 0 0 0 0 0 0 0 0
0 0 0 0 0 0 0 0 0 0 0 0 0 0 0 0 0 0 0 0 0 0 0 0 0 0 0 0 0 0 0 0 0 0 0 0 0 0 0 0 0 0 0
0 0 0 0 0 0 0 0 0 0 0 0 0 0 0 0 0 0 0 0 0 0 0 0 0 0 0 0 0 0 0 0 0 0 0 0 0 0 0 0 0 0 0
Wind_Speed
17 17 19 21 22 23 24 25 26 27 26 25 24 24 24 25 25 26 27 27 28 29 30 29 32 31 34 32 32 31 27 28 37 27 21 18 14 14 12 13 12 13 15
16 17 18 19 19 20 22 22 23 23 23 23 23 24 25 26 26 26 27 27 28 29 30 31 32 33 33 33 32 33 29 31 28 30 25 21 18 15 12 12 12 13 15
17 17 19 20 20 20 21 22 21 21 22 21 21 22 23 23 24 25 26 28 29 30 31 32 33 32 31 29 28 27 26 26 25 23 26 23 18 13 13 14 13 15 17
17 18 20 21 21 22 23 23 24 24 25 24 23 23 24 24 25 26 28 29 29 30 30 28 28 26 25 24 23 23 20 19 21 26 26 23 18 15 14 14 16 16 19
19 20 21 21 21 21 22 22 23 23 24 24 24 24 25 26 26 27 28 30 30 29 26 25 24 24 22 20 21 20 19 20 23 23 23 21 21 17 16 14 15 17 20
22 22 22 22 23 23 23 24 24 24 24 24 24 25 27 27 28 28 28 27 26 25 26 24 23 22 21 21 20 19 16 19 20 24 24 23 18 17 17 18 17 21 24
19 19 19 20 20 20 21 21 21 21 20 22 23 25 26 26 26 26 25 24 25 26 25 24 23 21 20 19 18 16 17 18 17 15 22 18 19 18 16 17 19 22 23
18 18 18 18 18 18 18 17 18 18 20 21 22 23 23 24 25 25 24 23 24 24 22 20 19 18 16 15 14 14 15 16 15 17 16 18 16 16 15 15 18 22 25
18 17 15 14 14 14 15 16 17 17 18 19 20 22 24 24 24 24 22 21 21 21 20 18 16 15 14 12 13 13 14 14 14 14 16 16 15 15 13 15 19 22 26
14 13 12 12 12 13 12 12 14 16 17 18 20 22 23 25 25 23 20 21 21 21 20 18 15 14 11 10 12 12 14 15 14 16 16 17 18 17 16 18 20 24 28
9 10 11 11 12 12 13 16 17 17 18 21 22 24 25 25 26 24 20 20 20 20 19 18 17 15 14 14 15 17 17 19 19 18 19 20 21 21 20 21 21 23 28
8 8 9 10 11 13 15 17 19 21 22 24 25 25 26 27 26 26 23 21 22 21 22 22 22 21 19 19 19 19 20 20 21 21 22 24 24 24 24 25 24 24 26
5 6 8 10 13 15 16 17 19 21 23 25 26 27 28 28 28 27 27 27 25 26 26 26 24 23 22 23 22 22 21 22 25 26 27 28 27 28 27 27 27 28 29
3 5 9 11 13 15 17 18 18 20 21 22 24 26 27 28 29 29 29 28 28 26 26 26 27 26 26 25 25 25 25 26 27 30 31 32 32 32 31 30 32 32 34
5 7 8 11 12 14 16 17 18 19 19 21 22 23 25 27 28 29 29 29 27 27 27 27 28 29 30 30 30 30 29 29 31 32 34 34 34 34 33 32 32 32 34
7 8 9 10 11 12 14 17 19 19 19 21 22 24 25 26 28 28 29 29 29 28 27 30 31 31 32 33 33 34 33 34 34 34 34 34 35 35 36 34 32 33 35
8 8 9 10 12 14 16 16 17 18 19 22 23 25 27 28 29 29 29 30 30 30 32 33 33 32 33 33 34 34 35 34 34 34 35 35 35 36 36 35 34 34 35
9 10 10 12 14 15 16 17 18 20 22 24 24 26 28 29 30 31 31 29 31 32 33 34 35 35 35 35 36 37 37 36 35 35 35 36 36 35 35 35 34 35 35
10 11 12 13 14 16 17 18 20 22 24 26 27 28 30 30 30 31 31 32 34 34 35 36 36 37 38 38 38 38 37 37 37 37 37 36 35 35 36 36 36 35 35
12 12 13 14 15 17 18 20 22 24 26 27 29 31 32 31 33 34 34 34 35 36 37 38 38 38 39 39 40 40 40 40 41 39 38 36 35 35 37 37 35 36 35
13 13 14 16 18 19 20 22 23 25 27 29 30 31 31 32 34 34 35 36 36 37 37 38 39 39 39 40 41 41 42 42 41 41 40 39 39 39 37 36 36 35 36
15 16 17 19 20 21 22 24 25 27 29 30 31 32 32 33 34 35 35 36 36 36 36 37 38 38 38 40 41 42 42 42 42 42 42 41 40 39 38 37 37 36 35
18 19 21 22 23 24 25 26 27 29 30 31 32 34 34 35 36 36 37 36 37 37 37 37 38 39 39 40 40 40 42 42 41 40 40 38 37 36 34 35 34 33 33
21 22 24 25 25 26 27 28 29 30 32 33 34 35 36 36 36 36 37 37 38 38 37 38 39 40 40 40 39 38 38 38 36 36 35 34 33 33 32 31 31 31 31
24 24 25 26 27 28 29 30 32 33 34 35 36 37 37 37 38 39 39 39 39 38 39 39 40 40 39 39 38 37 36 35 34 32 30 29 29 30 29 29 29 27 26
25 26 27 28 29 31 32 34 35 36 37 38 39 39 40 40 40 40 40 40 40 40 40 39 38 38 38 37 36 35 33 32 30 29 29 30 29 29 28 27 26 24 23
Wind_Direction
277 276 276 277 277 279 279 281 284 287 288 287 287 288 288 290 291 291 291 291 291 293 296 295 295 301 299 300 302 296 306 304 308 312 316 313 296 294 294 301 307 311 320
285 285 284 283 281 279 280 283 287 285 287 286 288 288 290 292 294 292 293 294 293 295 298 300 301 303 302 307 308 301 309 307 308 308 313 314 310 298 292 295 299 309 319
296 295 294 293 292 292 294 296 295 295 295 295 294 294 295 296 297 298 299 300 298 300 302 303 304 305 304 307 305 308 307 313 308 313 315 312 314 305 304 306 304 311 319
307 305 304 303 304 304 306 307 308 308 308 308 308 308 310 311 311 309 309 306 307 307 308 306 308 307 304 303 305 308 307 308 304 311 317 311 313 312 306 301 303 312 318
305 307 308 310 310 311 312 313 313 314 314 315 315 316 317 316 315 314 312 312 312 313 316 318 317 315 314 312 309 309 308 309 310 309 309 311 308 309 299 305 302 313 319
303 305 308 310 311 311 312 313 314 314 316 318 319 319 318 319 318 318 319 319 319 319 319 320 321 320 317 314 312 309 302 304 308 308 310 304 302 304 309 305 308 314 315
303 307 310 312 313 315 317 319 321 324 328 326 325 324 322 323 324 324 323 322 321 321 320 319 321 321 322 320 318 316 312 309 309 301 308 304 307 301 304 302 304 311 313
304 308 312 315 318 323 327 329 332 333 332 332 332 331 331 331 330 329 329 330 327 328 328 328 327 327 326 327 324 316 314 311 306 307 306 310 305 310 302 299 306 311 316
302 309 316 321 326 330 332 333 335 338 338 336 334 332 330 330 331 329 330 332 332 331 332 334 334 334 332 332 333 328 323 317 317 312 311 313 313 309 304 306 306 308 313
306 313 320 326 328 332 337 342 339 338 338 338 336 333 331 330 332 333 335 334 334 334 335 337 337 335 330 323 322 320 320 318 316 315 311 310 309 306 300 295 304 303 311
312 319 324 333 338 344 343 340 340 339 339 335 333 332 332 333 332 334 337 338 338 337 336 335 333 330 326 322 319 317 317 322 317 313 309 308 307 304 299 296 297 300 307
325 328 336 341 344 346 345 340 337 335 333 331 330 330 330 329 331 332 333 334 335 335 333 332 331 328 325 324 321 317 316 319 319 314 311 307 305 303 301 299 297 297 303
336 346 350 348 344 343 342 340 339 337 335 331 330 329 328 332 334 334 331 329 329 329 330 330 331 329 326 324 320 319 317 316 316 314 311 310 308 307 307 304 301 301 303
338 343 342 339 340 340 342 344 344 341 341 338 337 335 335 334 332 333 332 330 329 329 330 331 331 331 329 327 325 322 319 316 314 313 312 312 312 310 307 306 304 304 305
311 325 329 333 337 341 342 345 347 347 346 343 341 340 338 336 334 334 333 333 333 333 330 330 329 329 327 325 323 322 321 318 315 313 312 312 311 311 309 309 305 304 303
296 312 323 331 335 338 341 344 348 350 350 347 345 342 340 338 335 335 335 334 334 333 331 327 327 327 326 325 323 322 321 320 318 316 314 312 311 309 308 307 305 303 303
291 304 316 325 330 333 336 337 333 341 346 345 343 341 339 337 337 336 335 334 334 333 329 327 327 326 325 324 323 321 320 319 318 317 314 313 311 310 308 306 305 304 304
289 299 309 317 324 328 331 333 335 332 331 332 337 338 337 336 336 335 334 334 333 333 331 330 328 328 326 325 323 322 321 320 319 317 316 315 313 312 310 309 307 305 305
288 298 308 317 322 326 329 330 330 330 329 329 331 332 334 334 335 336 336 333 331 331 331 330 330 328 327 325 324 323 322 321 320 318 317 315 314 313 311 310 309 307 306
293 300 307 313 318 320 322 324 325 326 328 328 329 329 330 332 330 330 332 332 331 330 330 329 328 328 328 327 327 326 325 327 326 321 317 315 314 314 313 312 311 309 308
293 300 306 310 314 317 319 320 322 324 325 326 327 328 330 329 328 329 329 330 330 329 329 329 328 328 328 327 326 325 324 323 322 322 321 320 319 317 317 314 313 312 310
293 298 303 306 310 313 316 318 320 322 323 323 324 325 327 327 327 327 327 328 328 329 329 329 329 329 329 328 327 326 325 324 323 321 319 317 316 315 314 313 312 311 311
294 298 301 305 307 310 313 316 317 319 320 321 322 322 323 323 324 324 325 326 327 327 328 328 328 328 328 328 328 327 326 325 325 324 322 321 320 319 318 316 315 314 313
296 298 300 303 305 308 310 312 314 316 317 318 319 320 320 321 322 322 323 324 325 326 326 327 327 326 327 327 328 328 327 327 328 327 327 325 324 323 323 322 320 319 317
296 298 300 302 304 306 308 310 312 314 315 316 317 318 318 319 319 320 321 321 322 322 323 324 324 325 325 325 326 327 328 329 331 332 332 331 329 328 327 326 326 326 326
296 298 300 301 303 304 306 308 310 311 312 313 314 314 315 315 316 317 318 319 320 320 321 322 323 324 324 325 326 328 329 330 331 332 332 330 329 329 330 331 331 332 332